Home   Weather   Newcastle upon Tyne   Past weeks

Flag for United Kingdom Past Weather in Newcastle upon Tyne, England, United Kingdom — Yesterday and Last 2 Weeks

Now
48 °F

Passing clouds.


Feels Like: 46 °F
Forecast: 47 / 52 °F
Wind: 6 mph from Southwest

Location: Newcastle

Current Time: Dec 10, 2016 at 3:09:16 am

Latest Report: Dec 10, 2016 at 2:20 am


Visibility: N/A

Pressure: 29.98 "Hg

Humidity: 87%

Dew Point: 45 °F

Location of Newcastle upon TyneLocation

Past Weather in Newcastle upon Tyne — Graph

°F

Newcastle upon Tyne Temperature Yesterday

Maximum temperature yesterday: 57 °F (at 11:20 am)
Minimum temperature yesterday: 41 °F (at 12:50 am)
Average temperature yesterday: 51 °F

High & Low Weather Summary for the Past Weeks

 TemperatureHumidityPressure
High59 °F (Dec 7, 12:50 pm)100% (Nov 25, 1:20 am)30.51 "Hg (Nov 25, 1:20 am)
Low25 °F (Nov 29, 7:50 am)71% (Nov 25, 1:50 pm)29.92 "Hg (Dec 7, 3:50 pm)
Average41 °F91%30.27 "Hg
* Reported Nov 25 1:20 am — Dec 10 1:50 am, Newcastle upon Tyne, Weather by CustomWeather, © 2016

Note: Actual official high and low records may vary slightly from our data, if they occured in-between our weather recording intervals... More about our weather records

Advertising

Newcastle upon Tyne Weather History for the Previous 24 Hours

Scroll right to see more
 ConditionsComfort  
Time TempWeatherWind HumidityBarometerVisibility
1:50 am
Sat, Dec 10
50 °FPassing clouds.7 mph88%29.98 "HgN/A
1:20 am50 °FPassing clouds.6 mph82%29.98 "HgN/A
12:50 am50 °FPassing clouds.5 mph82%29.98 "HgN/A
11:50 pm
Fri, Dec 9
50 °FPassing clouds.8 mph88%30.01 "HgN/A
11:20 pm50 °FPassing clouds.9 mph82%30.01 "HgN/A
10:50 pm50 °FPassing clouds.9 mph82%30.01 "HgN/A
10:20 pm50 °FPassing clouds.8 mph82%30.01 "HgN/A
9:20 pm52 °FPassing clouds.8 mph82%30.01 "HgN/A
8:50 pm52 °FPassing clouds.8 mph82%29.98 "HgN/A
8:20 pm52 °FPassing clouds.8 mph82%29.98 "HgN/A
7:20 pm54 °FPassing clouds.9 mph77%29.98 "HgN/A
6:50 pm54 °FPassing clouds.7 mph82%29.98 "HgN/A
6:20 pm52 °FPassing clouds.7 mph88%29.98 "HgN/A
5:50 pm54 °FPassing clouds.8 mph77%29.98 "HgN/A
5:20 pm52 °FPassing clouds.8 mph82%29.98 "HgN/A
4:50 pm54 °FPassing clouds.7 mph77%29.98 "HgN/A
4:20 pm54 °FPassing clouds.7 mph82%29.98 "HgN/A
3:50 pm55 °FPassing clouds.9 mph77%29.98 "HgN/A
3:20 pm55 °FPassing clouds.10 mph82%29.98 "HgN/A
2:50 pm55 °FPassing clouds.9 mph82%29.98 "HgN/A
1:50 pm55 °FPassing clouds.10 mph88%30.01 "HgN/A
12:50 pm55 °FPassing clouds.9 mph88%29.98 "HgN/A
12:20 pm55 °FScattered clouds.12 mph88%29.98 "HgN/A
11:50 am57 °FScattered clouds.14 mph82%29.98 "HgN/A
11:20 am57 °FBroken clouds.14 mph82%30.01 "HgN/A
10:50 am55 °FPartly sunny.15 mph88%30.01 "HgN/A
10:20 am55 °FPartly sunny.9 mph88%30.01 "HgN/A
9:50 am55 °FScattered clouds.6 mph82%30.01 "HgN/A
9:20 am55 °FScattered clouds.3 mph82%30.01 "HgN/A
8:50 am54 °FScattered clouds.3 mph88%30.01 "HgN/A
8:20 am50 °FPartly sunny.2 mph100%30.01 "HgN/A
7:50 am48 °FPassing clouds.3 mph100%30.01 "HgN/A
7:20 am50 °FPassing clouds.5 mph94%30.01 "HgN/A
6:50 am50 °FPassing clouds.2 mph94%30.04 "HgN/A
6:20 am48 °FPassing clouds.5 mph94%30.04 "HgN/A
5:50 am46 °FPassing clouds.5 mph100%30.07 "HgN/A
4:50 am46 °FPassing clouds.3 mph93%30.07 "HgN/A
3:50 am45 °FPassing clouds.5 mph100%30.09 "HgN/A
3:20 am45 °FPassing clouds.3 mph100%30.09 "HgN/A
Weather by CustomWeather, © 2016

See weather overviewHow to use our weather pages